Location: Wald
(31.7579°N, 86.6655°W)
Time: 12:16:45
(UTC+00:00)

Cosmos 1980 Rocket - Pass Details

Date: 14 July 2020
Orbit: 828 x 851 km, 71.0° (Epoch: 08 August)

Event Time Altitude Azimuth Distance (km) Brightness Sun altitude
Rises 08:31:47 0° 344° (NNW) 3,419 5.8 -24.5°
Reaches altitude 10° 08:34:18 10° 348° (NNW) 2,479 5.1 -24.1°
Maximum altitude 08:39:54 59° 68° (ENE) 972 2.7 -23.3°
Drops below altitude 10° 08:45:28 10° 147° (SSE) 2,454 4.5 -22.5°
Sets 08:47:56 0° 151° (SSE) 3,383 5.2 -22.1°
